Regional Weather Roundup
Issued by NWS

Home | Current Version | Previous Version | Graphics & Text | Print | Product List | Glossary On
Versions: 1 2 3 4 5 6 7 8 9 10 11 12 13 14 15 16 17 18 19 20 21 22 23 24 25 26 27 28 29 30 31 32 33 34 35 36 37 38 39 40 41 42 43 44 45 46 47 48 49 50
000
ASUS43 KFSD 231110
RWRSD

WEATHER ROUNDUP FOR SOUTH DAKOTA
NATIONAL WEATHER SERVICE SIOUX FALLS SD
600 AM CDT WED MAY 23 2018

NOTE: "FAIR" INDICATES FEW OR NO CLOUDS BELOW 12,000 FEET WITH NO
SIGNIFICANT WEATHER AND/OR OBSTRUCTIONS TO VISIBILITY.


SDZ001>005-009-010-012>017-231200-
NORTHWEST AND NORTH CENTRAL SOUTH DAKOTA

CITY           SKY/WX    TMP DP  RH WIND       PRES   REMARKS
BUFFALO          N/A     59  55  87 E14       29.84S
FAITH            N/A     60  60 100 E12       29.85F
MOBRIDGE       LGT RAIN  63  60  90 E7        29.89F
$$

SDZ012>016-024>037-041>051-057-063-072>074-231200-
SOUTHWEST AND SOUTH CENTRAL SOUTH DAKOTA

CITY           SKY/WX    TMP DP  RH WIND       PRES   REMARKS
RAPID CTY ARPT PTCLDY    54  53  97 W7        29.90R
PIERRE         TSTM      63  63 100 N9        29.89R FOG
CUSTER         PTCLDY    45  44  97 N5        29.98S FOG
ELLSWORTH AFB  PTCLDY    55  55 100 W6        29.90R
PHILIP         CLOUDY    62  62 100 E9        29.87R
PINE RIDGE     MOCLDY    55  55 100 W6        29.91R FOG
SPEARFISH      CLOUDY    54  50  87 S9        29.94R
WINNER         LGT RAIN  69  61  75 E6        29.89R
$$

SDZ004>011-016>023-039-040-231200-
NORTHEAST SOUTH DAKOTA

CITY           SKY/WX    TMP DP  RH WIND       PRES   REMARKS
ABERDEEN       LGT RAIN  64  61  90 E10       29.99S
WATERTOWN      CLOUDY    65  63  93 SE12      30.01R THUNDER
BROOKINGS      CLOUDY    65  61  87 SE16      30.00R
SISSETON         N/A     59  56  89 S5        30.00R
$$

SDZ017-020-022-023-036>040-048>070-231200-
SOUTHEAST SOUTH DAKOTA

CITY           SKY/WX    TMP DP  RH WIND       PRES   REMARKS
SIOUX FALLS    CLOUDY    65  63  93 SE10      29.99S
HURON          CLOUDY    64  62  93 E6        29.93F
CHAMBERLAIN    MOCLDY    67  67 100 E5        29.91R
MITCHELL       CLOUDY    64  62  93 E5        29.94S
YANKTON        PTCLDY    64  62  93 E7        29.96S
$$

ABBREVIATIONS USED IN REMARKS
   TC - TEMPERATURE IN CELSIUS
  WCI - WIND CHILL INDEX
   HX - HEAT INDEX
  VSB - VISIBILITY




USA.gov is the U.S. government's official web portal to all federal, state and local government web resources and services.